[[{"header":{"parameterUnit":"m.s-1","parameterCategory":2,"la1":30.2991,"la2":30.254,"lo1":-89.0895,"lo2":-89.0444,"dy":0.0017,"dx":0.0017,"nx":28,"ny":28,"refTime":"2025-08-03T09:00:00:Z","depth":"0","parameterNumber":2,"parameterNumberName":"U-component_of_CURRENTS"},"data":[0,0,0,0,0,0,0,0,0,0,0,0,0,0,0,0,0,0,0,0,0,0,0,0,0,0,0,0,0,0,0,0,0,0,0,0,0,0,0,0,0,0,0,0,0,0,0,0,0,0,0,0,0,0,0,0,0,0,-0.352,-0.3521,0,-0.3507,-0.3506,-0.3505,-0.3437,-0.3436,-0.3435,-0.3435,-0.3322,-0.332,-0.3317,0,0,0,0,0,0,0,0,0,0,0,0,0,-0.3447,-0.3448,-0.352,-0.3521,-0.3521,-0.3507,-0.3506,-0.3505,-0.3437,-0.3436,-0.3435,-0.3434,-0.3323,-0.332,-0.3317,0,0,0,0,0,0,0,0,0,0,0,0,0,-0.3452,-0.3449,-0.352,-0.3493,-0.3491,-0.3507,-0.3506,-0.3505,-0.3437,-0.3436,-0.3435,-0.3434,-0.3323,-0.332,-0.3317,-0.3318,0,0,-0.3306,-0.3305,0,0,0,0,0,0,0,0,-0.3452,-0.3453,-0.3496,-0.3495,-0.3493,-0.3481,-0.3439,-0.344,-0.3438,-0.3448,-0.3435,-0.3433,-0.3373,-0.3365,-0.3353,-0.3313,-0.3308,-0.3306,-0.3304,-0.3302,-0.3301,0,0,0,0,0,0,0,-0.3451,-0.3454,-0.3505,-0.3497,-0.3495,-0.3469,-0.3467,-0.3439,-0.3407,-0.3447,-0.3444,-0.3458,-0.337,-0.3357,-0.335,-0.3306,-0.3306,-0.3303,-0.3301,-0.3299,-0.3303,-0.3305,0,0,0,0,0,0,-0.3476,-0.3454,-0.3506,-0.3506,-0.348,-0.3472,-0.347,-0.3478,-0.341,-0.3402,-0.3459,-0.3455,-0.3363,-0.3354,-0.3346,-0.3376,-0.3302,-0.3299,-0.3297,-0.3301,-0.3303,-0.3306,0,0,0,0,0,0,-0.3474,-0.348,-0.3506,-0.3487,-0.349,-0.3476,-0.3484,-0.3479,-0.3466,-0.3422,-0.341,-0.3454,-0.3362,-0.335,-0.3341,-0.3369,-0.3297,-0.3294,-0.3298,-0.3301,-0.3304,-0.3415,0,0,0,0,0,0,-0.3472,-0.348,-0.3479,-0.3489,-0.3492,-0.3536,-0.3486,-0.3479,-0.3481,-0.3476,-0.3414,-0.3402,-0.336,-0.3346,-0.3337,-0.3363,-0.3292,-0.3295,-0.33,-0.3303,-0.3408,-0.3421,-0.3432,0,0,0,0,0,-0.3469,-0.3483,-0.3479,-0.3485,-0.3497,-0.3539,-0.3538,-0.3516,-0.3483,-0.3495,-0.3455,-0.3404,-0.3366,-0.3346,-0.3334,-0.336,-0.3293,-0.3298,-0.3303,-0.3403,-0.3419,-0.3432,0,0,0,0,0,0,-0.3444,-0.3479,-0.3474,-0.3494,-0.3526,-0.3532,-0.3534,-0.3525,-0.3501,-0.3483,-0.3426,-0.3414,-0.3417,-0.338,-0.3359,-0.3376,-0.3323,-0.3326,-0.3403,-0.3417,-0.3429,-0.346,-0.3289,0,0,0,0,0,-0.3445,-0.3457,-0.35,-0.351,-0.3532,-0.3532,-0.3539,-0.3537,-0.3529,-0.3516,-0.348,-0.3444,-0.343,-0.3417,-0.3394,-0.34,-0.3361,-0.3412,-0.3425,-0.3435,-0.3455,-0.342,-0.343,-0.3322,-0.3322,-0.3321,0,0,-0.3435,-0.3455,-0.3459,-0.3505,-0.3515,-0.3568,-0.353,-0.3556,-0.3589,-0.3507,-0.3516,-0.3481,-0.3442,-0.3453,-0.3451,-0.3423,-0.3448,-0.3441,-0.345,-0.3464,-0.3426,-0.3436,-0.3445,-0.3325,-0.3324,-0.3324,0,0,-0.3447,-0.3446,-0.3478,-0.3518,-0.3563,-0.3578,-0.3596,-0.3618,-0.3615,-0.3632,-0.3587,-0.3583,-0.3544,-0.354,-0.3528,-0.3597,-0.3513,-0.3579,-0.366,-0.3626,-0.3634,-0.3641,-0.3613,-0.3616,-0.3584,-0.3584,-0.3584,0,-0.3431,-0.3483,-0.3494,-0.3553,-0.3592,-0.3594,-0.3658,-0.3667,-0.368,-0.369,-0.3649,-0.3624,-0.3595,-0.3621,-0.3653,-0.3625,-0.3583,-0.3604,-0.364,-0.3646,-0.3651,-0.3621,-0.3623,-0.359,-0.359,-0.3589,-0.3588,0,-0.3491,-0.3535,-0.356,-0.3633,-0.3677,-0.3727,-0.3774,-0.3795,-0.3783,-0.3791,-0.3804,-0.3762,-0.3749,-0.3745,-0.3719,-0.3753,-0.3705,-0.3657,-0.36,-0.3668,-0.3632,-0.3633,-0.3599,-0.3597,-0.3595,-0.3593,0,0,-0.3433,-0.3577,-0.3579,-0.3641,-0.3727,-0.3771,-0.3837,-0.3904,-0.393,-0.3927,-0.3948,-0.3952,-0.3915,-0.3903,-0.3862,-0.3848,-0.3858,-0.3777,-0.3772,-0.3745,-0.3776,-0.3505,-0.3479,-0.3796,-0.3797,-0.3798,-0.3739,0,-0.347,-0.3603,-0.3663,-0.3775,-0.3849,-0.3895,-0.3955,-0.4008,-0.4016,-0.4031,-0.4009,-0.4003,-0.3978,-0.3952,-0.3947,-0.3859,-0.3862,-0.3878,-0.3719,-0.3716,-0.3461,-0.3471,-0.3237,-0.3143,-0.3739,-0.3739,-0.3739,0,-0.3494,-0.3588,-0.372,-0.3861,-0.3895,-0.3959,-0.4044,-0.41,-0.4137,-0.4135,-0.4137,-0.4095,-0.4093,-0.4037,-0.3967,-0.3965,-0.3906,-0.3844,-0.3838,-0.3547,-0.3443,-0.317,-0.312,-0.3073,-0.3738,-0.3738,-0.3738,0,-0.3436,-0.3611,-0.3717,-0.3769,-0.3932,-0.3986,-0.4055,-0.4121,-0.4148,-0.4183,-0.4163,-0.4167,-0.4102,-0.4059,-0.3936,-0.3947,-0.3819,-0.3808,-0.353,-0.3511,-0.3262,-0.3217,-0.3137,-0.3788,-0.3788,-0.3788,-0.3789,0,-0.3433,-0.3502,-0.3702,-0.3755,-0.3864,-0.3977,-0.4051,-0.4114,-0.4162,-0.4154,-0.4195,-0.4132,-0.4093,-0.4002,-0.3945,-0.3698,-0.3823,-0.354,-0.3467,-0.3291,-0.3251,-0.3154,-0.3214,-0.3786,-0.3787,-0.3787,-0.3788,0,-0.332,-0.3455,-0.3585,-0.3783,-0.3836,-0.3903,-0.4035,-0.4065,-0.4129,-0.4103,-0.4101,-0.4081,-0.3928,-0.3873,-0.3753,-0.3629,-0.3378,-0.3387,-0.3177,-0.3075,-0.2707,-0.2782,-0.2646,-0.2588,-0.3056,-0.3049,-0.3043,0,-0.3269,-0.3334,-0.3566,-0.3623,-0.3706,-0.3823,-0.3874,-0.4013,-0.4027,-0.4025,-0.3977,-0.3864,-0.367,-0.3404,-0.3209,-0.3022,-0.311,-0.2718,-0.2691,-0.2636,-0.267,-0.2761,-0.2735,-0.244,-0.2429,-0.2421,-0.2414,0,-0.3155,-0.3246,-0.335,-0.3485,-0.3572,-0.3663,-0.3748,-0.3749,-0.3843,-0.3759,-0.357,-0.341,-0.3165,-0.2778,-0.2574,-0.2476,-0.2593,-0.2524,-0.2534,-0.222,-0.2253,-0.2175,-0.2568,-0.2337,-0.2344,-0.235,-0.2354,-0.2357,-0.302,-0.3065,-0.3197,-0.33,-0.3396,-0.3408,-0.3347,-0.3387,-0.3286,-0.3042,-0.3074,-0.2638,-0.2407,-0.2012,-0.196,-0.1739,-0.1977,-0.1662,-0.1776,-0.189,-0.176,-0.1956,-0.1581,-0.1584,-0.1587,-0.1589,-0.1591,0,-0.2795,-0.2872,-0.2984,-0.3066,-0.3048,-0.3178,-0.3166,-0.2999,-0.2719,-0.2515,-0.2206,-0.1632,-0.1342,-0.1279,-0.11,-0.1021,-0.1117,-0.1063,-0.121,-0.1235,-0.1427,-0.1318,-0.0783,-0.0783,-0.0783,-0.0783,-0.0784,-0.0784,-0.2665,-0.2667,-0.2752,-0.2668,-0.2698,-0.2512,-0.2415,-0.2194,-0.1982,-0.1399,-0.0966,-0.074,-0.072,-0.0761,-0.0723,-0.0712,-0.0832,-0.0749,-0.0931,-0.1126,-0.1195,-0.1261,-0.117,-0.0613,-0.0613,-0.0643,-0.0643,-0.0644]},{"header":{"parameterUnit":"m.s-1","parameterCategory":2,"la1":30.2991,"la2":30.254,"lo1":-89.0895,"lo2":-89.0444,"dy":0.0017,"dx":0.0017,"nx":28,"ny":28,"refTime":"2025-08-03T09:00:00:Z","depth":"0","parameterNumber":3,"parameterNumberName":"V-component_of_CURRENTS"},"data":[0,0,0,0,0,0,0,0,0,0,0,0,0,0,0,0,0,0,0,0,0,0,0,0,0,0,0,0,0,0,0,0,0,0,0,0,0,0,0,0,0,0,0,0,0,0,0,0,0,0,0,0,0,0,0,0,0,0,-0.0552,-0.0551,0,-0.0417,-0.0415,-0.0413,-0.0321,-0.032,-0.032,-0.0319,-0.0138,-0.0134,-0.013,0,0,0,0,0,0,0,0,0,0,0,0,0,-0.0654,-0.0653,-0.0552,-0.0551,-0.0549,-0.0417,-0.0415,-0.0413,-0.0321,-0.032,-0.032,-0.0319,-0.014,-0.0135,-0.0129,0,0,0,0,0,0,0,0,0,0,0,0,0,-0.0572,-0.0652,-0.0553,-0.0489,-0.0482,-0.0418,-0.0415,-0.0412,-0.0321,-0.032,-0.032,-0.0319,-0.0141,-0.0135,-0.0129,-0.0103,0,0,-0.0109,-0.0106,0,0,0,0,0,0,0,0,-0.0576,-0.0568,-0.05,-0.0493,-0.0485,-0.0387,-0.0384,-0.0307,-0.0321,-0.038,-0.0319,-0.0319,-0.0219,-0.0206,-0.018,-0.0094,-0.0087,-0.0108,-0.0104,-0.0101,-0.0099,0,0,0,0,0,0,0,-0.0582,-0.0572,-0.0497,-0.0498,-0.049,-0.0441,-0.0429,-0.0369,-0.0303,-0.0375,-0.0368,-0.0357,-0.0214,-0.0187,-0.0175,-0.0084,-0.0108,-0.0102,-0.0098,-0.0096,0.0047,0.0047,0,0,0,0,0,0,-0.0608,-0.0578,-0.0501,-0.0493,-0.0532,-0.044,-0.0426,-0.0417,-0.0304,-0.0287,-0.0358,-0.0353,-0.0198,-0.0183,-0.0168,-0.0138,-0.0101,-0.0095,-0.0091,0.0047,0.0047,0.0047,0,0,0,0,0,0,-0.0611,-0.0602,-0.0506,-0.0534,-0.0518,-0.044,-0.043,-0.0415,-0.0387,-0.0292,-0.0273,-0.0345,-0.0197,-0.0177,-0.0121,-0.013,-0.0092,-0.0086,0.0048,0.0047,0.0047,-0.0073,0,0,0,0,0,0,-0.0614,-0.0604,-0.0611,-0.0536,-0.0518,-0.0486,-0.043,-0.0413,-0.0382,-0.0374,-0.0275,-0.0257,-0.0195,-0.0132,-0.0115,-0.012,-0.0081,0.0048,0.0047,0.0047,-0.0069,-0.0077,-0.0084,0,0,0,0,0,-0.0618,-0.0634,-0.0612,-0.0603,-0.0529,-0.0487,-0.0474,-0.0413,-0.0382,-0.0382,-0.031,-0.026,-0.0121,-0.0127,-0.0107,-0.0111,0.0048,0.0047,0.0047,-0.0065,-0.0075,-0.0084,0,0,0,0,0,0,-0.0684,-0.0624,-0.0599,-0.0596,-0.0554,-0.0473,-0.0468,-0.0423,-0.0364,-0.0356,-0.0262,-0.024,-0.0193,-0.0135,-0.0144,-0.0069,-0.0028,-0.0025,-0.012,-0.0129,-0.0137,-0.016,-0.0076,0,0,0,0,0,-0.0704,-0.07,-0.0634,-0.0637,-0.0618,-0.0544,-0.052,-0.048,-0.0417,-0.039,-0.0321,-0.0244,-0.0178,-0.0143,-0.0079,-0.004,-0.0022,-0.0028,-0.0036,-0.0043,-0.0048,-0.0024,-0.0031,0.0046,0.0046,0.0046,0,0,-0.0734,-0.0699,-0.0699,-0.0651,-0.061,-0.0606,-0.0528,-0.0503,-0.0493,-0.038,-0.0349,-0.0271,-0.0174,-0.013,-0.0104,-0.0083,-0.0065,-0.0044,-0.0051,-0.0051,-0.0025,-0.0033,-0.004,0.0046,0.0046,0.0046,0,0,-0.0802,-0.0758,-0.0784,-0.0755,-0.0708,-0.0657,-0.0656,-0.0583,-0.0542,-0.0502,-0.0414,-0.0346,-0.0254,-0.0183,-0.0134,-0.0146,-0.0108,-0.0123,-0.018,-0.0157,-0.0164,-0.017,-0.0205,-0.0213,-0.0127,-0.0127,-0.0127,0,-0.0842,-0.0859,-0.0787,-0.0804,-0.0787,-0.069,-0.0711,-0.066,-0.0579,-0.054,-0.0513,-0.0358,-0.028,-0.0205,-0.0206,-0.0164,-0.0166,-0.0157,-0.0171,-0.0176,-0.0179,-0.0213,-0.022,-0.0133,-0.0132,-0.0131,-0.0131,0,-0.0927,-0.0942,-0.0953,-0.094,-0.091,-0.0912,-0.0831,-0.0793,-0.0729,-0.0665,-0.0581,-0.0471,-0.0375,-0.0339,-0.0273,-0.0245,-0.0247,-0.019,-0.0158,-0.0195,-0.0228,-0.0234,-0.0141,-0.0139,-0.0137,-0.0136,0,0,-0.1002,-0.1016,-0.1016,-0.1034,-0.0978,-0.0959,-0.0934,-0.0869,-0.0837,-0.0754,-0.0715,-0.0585,-0.0508,-0.0447,-0.0351,-0.0321,-0.0358,-0.0276,-0.0272,-0.0332,-0.0362,-0.0213,-0.0204,-0.0309,-0.0309,-0.0309,-0.0395,0,-0.1089,-0.1173,-0.1128,-0.1177,-0.1209,-0.1101,-0.1076,-0.0999,-0.0914,-0.0855,-0.0724,-0.0652,-0.0554,-0.0506,-0.0462,-0.0371,-0.0369,-0.0344,-0.0298,-0.0298,-0.0175,-0.0202,-0.0088,-0.0139,-0.0399,-0.04,-0.0401,0,-0.1177,-0.1222,-0.1312,-0.1294,-0.1287,-0.1288,-0.1201,-0.1163,-0.1041,-0.0973,-0.0874,-0.077,-0.0688,-0.0609,-0.0513,-0.0506,-0.0453,-0.0396,-0.0396,-0.0211,-0.0154,-0.0129,-0.0138,0.0015,-0.0408,-0.0407,-0.0407,0,-0.1279,-0.1324,-0.1403,-0.1407,-0.1385,-0.1373,-0.1324,-0.1209,-0.1154,-0.1053,-0.1011,-0.0891,-0.083,-0.0745,-0.0586,-0.0573,-0.0499,-0.0467,-0.0298,-0.0291,-0.0157,-0.0134,-0.0017,-0.0429,-0.0429,-0.0429,-0.0429,0,-0.1387,-0.1435,-0.1465,-0.1513,-0.1549,-0.1477,-0.1454,-0.1383,-0.1278,-0.1207,-0.1083,-0.1004,-0.0857,-0.076,-0.0652,-0.0476,-0.0553,-0.0318,-0.0286,-0.0197,-0.0177,-0.0003,0.003,-0.0432,-0.0431,-0.0431,-0.043,0,-0.1496,-0.1524,-0.1612,-0.1626,-0.1617,-0.1642,-0.1545,-0.1501,-0.1406,-0.1322,-0.1296,-0.1124,-0.0973,-0.0821,-0.0677,-0.0539,-0.029,-0.0326,-0.0249,-0.0201,0.0129,0.015,0.0255,0.0364,-0.0189,-0.0186,-0.0183,0,-0.1557,-0.1636,-0.1711,-0.1741,-0.1753,-0.1748,-0.1707,-0.1591,-0.1522,-0.1357,-0.1319,-0.1162,-0.0965,-0.071,-0.0461,-0.0267,-0.0167,-0.0057,0.0029,0.0169,0.0213,0.0205,0.0288,0.0104,0.0109,0.0113,0.0117,0,-0.1668,-0.1712,-0.1784,-0.1858,-0.1862,-0.183,-0.1764,-0.1729,-0.1555,-0.1432,-0.1233,-0.1074,-0.0794,-0.0445,-0.0173,-0.0048,0.0097,0.0039,0.017,0.0454,0.0463,0.0578,0.0083,0.0154,0.015,0.0147,0.0145,0.0144,-0.1715,-0.1799,-0.1881,-0.193,-0.1926,-0.1853,-0.1764,-0.1654,-0.1487,-0.1168,-0.1093,-0.066,-0.0371,0.0076,0.0176,0.0513,0.0405,0.0633,0.063,0.0596,0.0785,0.0369,0.0517,0.0516,0.0514,0.0513,0.0512,0,-0.1725,-0.1815,-0.1903,-0.1915,-0.185,-0.1844,-0.1724,-0.1556,-0.1296,-0.0939,-0.0628,0.0028,0.0363,0.0611,0.0956,0.1105,0.1095,0.1158,0.1155,0.1202,0.0829,0.0936,0.1204,0.1204,0.1204,0.1204,0.1204,0.1203,-0.1722,-0.1822,-0.1878,-0.1796,-0.1757,-0.1566,-0.1455,-0.1249,-0.0953,-0.0292,0.0286,0.0675,0.0991,0.125,0.1523,0.1545,0.1651,0.1624,0.1658,0.1395,0.1345,0.1297,0.1411,0.1774,0.1775,0.2069,0.2072,0.2074]}],[{"header":{"parameterUnit":"m.s-1","parameterCategory":2,"la1":30.2991,"la2":30.254,"lo1":-89.0895,"lo2":-89.0444,"dy":0.0017,"dx":0.0017,"nx":28,"ny":28,"refTime":"2025-08-03T09:00:00:Z","depth":"2","parameterNumber":2,"parameterNumberName":"U-component_of_CURRENTS"},"data":[0,0,0,0,0,0,0,0,0,0,0,0,0,0,0,0,0,0,0,0,0,0,0,0,0,0,0,0,0,0,0,0,0,0,0,0,0,0,0,0,0,0,0,0,0,0,0,0,0,0,0,0,0,0,0,0,0,0,-0.3147,-0.3147,0,-0.3107,-0.3106,-0.3105,-0.3067,-0.3067,-0.3067,-0.3067,-0.3006,-0.3004,-0.3002,0,0,0,0,0,0,0,0,0,0,0,0,0,-0.3088,-0.309,-0.3147,-0.3147,-0.3147,-0.3107,-0.3106,-0.3105,-0.3067,-0.3067,-0.3067,-0.3067,-0.3006,-0.3004,-0.3002,0,0,0,0,0,0,0,0,0,0,0,0,0,-0.3081,-0.309,-0.3147,-0.3129,-0.3128,-0.3108,-0.3106,-0.3104,-0.3067,-0.3067,-0.3067,-0.3068,-0.3007,-0.3004,-0.3002,-0.2978,0,0,-0.2993,-0.2992,0,0,0,0,0,0,0,0,-0.3081,-0.3082,-0.3131,-0.313,-0.3129,-0.3099,-0.3063,-0.3064,-0.3067,-0.3082,-0.3067,-0.3068,-0.304,-0.3034,-0.3015,-0.2975,-0.2973,-0.2993,-0.2991,-0.299,-0.2989,0,0,0,0,0,0,0,-0.3082,-0.3083,-0.3123,-0.3132,-0.313,-0.3089,-0.3088,-0.3062,-0.3053,-0.308,-0.3079,-0.3087,-0.3038,-0.3018,-0.3014,-0.2972,-0.2993,-0.2991,-0.2989,-0.2988,-0.294,-0.2941,0,0,0,0,0,0,-0.3108,-0.3084,-0.3125,-0.3123,-0.3114,-0.3091,-0.309,-0.3102,-0.3054,-0.3049,-0.3087,-0.3086,-0.3023,-0.3017,-0.3012,-0.3009,-0.299,-0.2988,-0.2986,-0.294,-0.294,-0.2941,0,0,0,0,0,0,-0.3107,-0.3112,-0.3126,-0.3108,-0.3108,-0.3093,-0.3106,-0.3101,-0.3119,-0.306,-0.3054,-0.3115,-0.3023,-0.3015,-0.3006,-0.3005,-0.2986,-0.2984,-0.2939,-0.294,-0.294,-0.2986,0,0,0,0,0,0,-0.3105,-0.3112,-0.3127,-0.311,-0.3111,-0.3132,-0.3107,-0.31,-0.3125,-0.3123,-0.3082,-0.3074,-0.3022,-0.3011,-0.3004,-0.3001,-0.2982,-0.2939,-0.294,-0.294,-0.2984,-0.2988,-0.2991,0,0,0,0,0,-0.3103,-0.3117,-0.3128,-0.3133,-0.3133,-0.3134,-0.3129,-0.3113,-0.3127,-0.3131,-0.3105,-0.3077,-0.301,-0.3009,-0.3,-0.2997,-0.2938,-0.2939,-0.294,-0.2982,-0.2987,-0.2991,0,0,0,0,0,0,-0.3085,-0.3115,-0.3126,-0.3146,-0.3154,-0.3131,-0.313,-0.3143,-0.3127,-0.313,-0.3085,-0.3074,-0.307,-0.3033,-0.3034,-0.2987,-0.2969,-0.2968,-0.3004,-0.3008,-0.3011,-0.2955,-0.2979,0,0,0,0,0,-0.3097,-0.3121,-0.3139,-0.3153,-0.3162,-0.3161,-0.3164,-0.3165,-0.3153,-0.3148,-0.3124,-0.3091,-0.3059,-0.3038,-0.3009,-0.2983,-0.2936,-0.2975,-0.2979,-0.2982,-0.2931,-0.2871,-0.2864,-0.2944,-0.2944,-0.2943,0,0,-0.3087,-0.3113,-0.3122,-0.3153,-0.3151,-0.3143,-0.3161,-0.3177,-0.3161,-0.3143,-0.3118,-0.3119,-0.3063,-0.303,-0.3023,-0.3,-0.2948,-0.2984,-0.2987,-0.2932,-0.2871,-0.2863,-0.2856,-0.2944,-0.2944,-0.2944,0,0,-0.3067,-0.3113,-0.3116,-0.3136,-0.3164,-0.3155,-0.3179,-0.3187,-0.3182,-0.3176,-0.3155,-0.3143,-0.3111,-0.3046,-0.3013,-0.3019,-0.2986,-0.3044,-0.2993,-0.2938,-0.293,-0.2922,-0.2903,-0.2893,-0.3026,-0.3026,-0.3026,0,-0.3057,-0.3069,-0.3114,-0.3124,-0.3125,-0.3168,-0.3155,-0.3151,-0.3156,-0.3143,-0.3173,-0.3116,-0.3091,-0.3011,-0.3009,-0.302,-0.3006,-0.2984,-0.2941,-0.2931,-0.2922,-0.2904,-0.2892,-0.3028,-0.3028,-0.3028,-0.3028,0,-0.3029,-0.3049,-0.3055,-0.3074,-0.3078,-0.3088,-0.3096,-0.3107,-0.3128,-0.3121,-0.3102,-0.3074,-0.3021,-0.3038,-0.3017,-0.2949,-0.2971,-0.2972,-0.2926,-0.2916,-0.2899,-0.2886,-0.3032,-0.3031,-0.303,-0.3029,0,0,-0.2971,-0.3024,-0.3026,-0.3015,-0.3062,-0.3044,-0.3039,-0.302,-0.2976,-0.3026,-0.2969,-0.295,-0.2965,-0.2925,-0.2924,-0.2875,-0.2831,-0.2896,-0.2893,-0.287,-0.2745,-0.2587,-0.2558,-0.2843,-0.284,-0.2837,-0.2777,0,-0.2929,-0.2928,-0.2965,-0.2928,-0.2914,-0.2958,-0.2917,-0.2915,-0.2913,-0.2875,-0.2895,-0.2852,-0.2912,-0.2892,-0.2858,-0.2848,-0.279,-0.2848,-0.2759,-0.2756,-0.2609,-0.2532,-0.2369,-0.2284,-0.2764,-0.2762,-0.276,0,-0.2876,-0.288,-0.2852,-0.2829,-0.2821,-0.2813,-0.275,-0.2724,-0.2707,-0.2704,-0.2708,-0.2731,-0.2707,-0.2743,-0.2701,-0.2752,-0.2724,-0.2716,-0.2714,-0.2517,-0.2567,-0.236,-0.2241,-0.2737,-0.2739,-0.2741,-0.2742,0,-0.2771,-0.2787,-0.2752,-0.2759,-0.2743,-0.2734,-0.2725,-0.2691,-0.2648,-0.2614,-0.2588,-0.2587,-0.2592,-0.2574,-0.2602,-0.2649,-0.254,-0.26,-0.2423,-0.2417,-0.222,-0.2198,-0.2489,-0.2489,-0.2489,-0.2489,-0.2489,0,-0.2695,-0.2658,-0.2715,-0.2691,-0.2614,-0.2651,-0.2568,-0.2542,-0.2523,-0.2437,-0.2504,-0.2432,-0.2548,-0.2532,-0.2543,-0.2438,-0.2495,-0.2358,-0.2352,-0.2239,-0.2219,-0.2559,-0.2568,-0.2487,-0.2487,-0.2488,-0.2488,0,-0.2555,-0.2608,-0.2557,-0.2568,-0.2565,-0.2515,-0.2516,-0.2432,-0.2441,-0.234,-0.2341,-0.2355,-0.2308,-0.238,-0.2348,-0.2337,-0.2262,-0.2193,-0.2071,-0.2045,-0.2203,-0.2216,-0.1991,-0.1984,-0.1978,-0.1973,-0.1969,0,-0.2487,-0.2452,-0.2451,-0.2417,-0.2431,-0.2403,-0.2344,-0.2375,-0.229,-0.2251,-0.2158,-0.2156,-0.2061,-0.1994,-0.1958,-0.1907,-0.2048,-0.1725,-0.1728,-0.2115,-0.2134,-0.2156,-0.2176,-0.1542,-0.1534,-0.1529,-0.1524,0,-0.232,-0.2331,-0.2275,-0.2233,-0.2199,-0.2146,-0.2101,-0.2047,-0.2033,-0.1989,-0.1887,-0.1849,-0.1748,-0.1605,-0.1542,-0.1505,-0.1731,-0.1593,-0.1989,-0.1673,-0.1679,-0.1703,-0.174,-0.1471,-0.1476,-0.148,-0.1483,-0.1485,-0.2182,-0.2105,-0.206,-0.2005,-0.1959,-0.1881,-0.1795,-0.176,-0.1672,-0.1561,-0.1607,-0.1487,-0.1456,-0.1235,-0.1164,-0.1148,-0.1276,-0.1272,-0.1297,-0.1326,-0.1263,-0.1255,-0.096,-0.0962,-0.0964,-0.0966,-0.0967,0,-0.1994,-0.1924,-0.1839,-0.1765,-0.1667,-0.1722,-0.158,-0.1466,-0.1336,-0.1311,-0.1254,-0.1055,-0.0915,-0.0913,-0.0766,-0.0731,-0.0807,-0.0733,-0.0842,-0.0891,-0.0936,-0.0862,-0.0448,-0.0447,-0.0446,-0.0445,0,0,-0.1883,-0.1725,-0.1681,-0.1503,-0.1465,-0.1291,-0.1196,-0.1061,-0.0979,-0.0853,-0.0817,-0.0864,-0.0852,-0.0646,-0.059,-0.0496,-0.0713,-0.0477,-0.0884,-0.1061,-0.1105,-0.122,-0.1153,0,0,0,0,0]},{"header":{"parameterUnit":"m.s-1","parameterCategory":2,"la1":30.2991,"la2":30.254,"lo1":-89.0895,"lo2":-89.0444,"dy":0.0017,"dx":0.0017,"nx":28,"ny":28,"refTime":"2025-08-03T09:00:00:Z","depth":"2","parameterNumber":3,"parameterNumberName":"V-component_of_CURRENTS"},"data":[0,0,0,0,0,0,0,0,0,0,0,0,0,0,0,0,0,0,0,0,0,0,0,0,0,0,0,0,0,0,0,0,0,0,0,0,0,0,0,0,0,0,0,0,0,0,0,0,0,0,0,0,0,0,0,0,0,0,0.0493,0.0494,0,0.0648,0.065,0.0652,0.0653,0.0652,0.065,0.0648,0.0746,0.075,0.0755,0,0,0,0,0,0,0,0,0,0,0,0,0,0.0335,0.0337,0.0492,0.0494,0.0496,0.0648,0.065,0.0652,0.0654,0.0652,0.0649,0.0647,0.0745,0.075,0.0755,0,0,0,0,0,0,0,0,0,0,0,0,0,0.0437,0.0337,0.0492,0.0516,0.052,0.0648,0.065,0.0653,0.0654,0.0651,0.0649,0.0646,0.0743,0.0749,0.0756,0.0852,0,0,0.0776,0.0779,0,0,0,0,0,0,0,0,0.0431,0.0442,0.0511,0.0515,0.0519,0.063,0.0631,0.0717,0.0655,0.0602,0.0648,0.0645,0.0705,0.0714,0.0749,0.0857,0.0861,0.0776,0.078,0.0783,0.0785,0,0,0,0,0,0,0,0.0424,0.0437,0.0553,0.0513,0.0519,0.0568,0.0577,0.0648,0.0665,0.0607,0.0607,0.0628,0.0706,0.0743,0.0751,0.0863,0.0776,0.0782,0.0786,0.0789,0.1044,0.1046,0,0,0,0,0,0,0.0403,0.0429,0.0548,0.0558,0.0469,0.0572,0.0583,0.0596,0.0666,0.0675,0.063,0.0627,0.0733,0.0744,0.0755,0.083,0.0783,0.0789,0.0793,0.1041,0.1044,0.1047,0,0,0,0,0,0,0.0399,0.0412,0.0542,0.0498,0.0518,0.0577,0.0592,0.0601,0.0604,0.0684,0.0691,0.062,0.0731,0.0745,0.0819,0.0834,0.0792,0.0798,0.1038,0.1042,0.1046,0.1008,0,0,0,0,0,0,0.0394,0.0409,0.0401,0.0497,0.052,0.0603,0.0595,0.0606,0.0624,0.0621,0.068,0.0688,0.073,0.0809,0.0825,0.0843,0.0803,0.1034,0.104,0.1045,0.1005,0.101,0.1014,0,0,0,0,0,0.0387,0.0403,0.04,0.0414,0.051,0.0604,0.062,0.0652,0.0625,0.064,0.0688,0.0684,0.0854,0.0817,0.0835,0.0855,0.1031,0.1038,0.1044,0.1003,0.1009,0.1014,0,0,0,0,0,0,0.0329,0.0408,0.0406,0.044,0.0503,0.0604,0.0625,0.0638,0.069,0.0675,0.0725,0.074,0.081,0.0853,0.081,0.0951,0.0941,0.0952,0.0904,0.091,0.0914,0.0857,0.0809,0,0,0,0,0,0.0313,0.034,0.0421,0.0445,0.0473,0.0537,0.0571,0.0596,0.0661,0.0677,0.0723,0.0786,0.0864,0.0895,0.097,0.1048,0.1044,0.1076,0.1081,0.1084,0.1055,0.1052,0.1051,0.1069,0.1069,0.1068,0,0,0.029,0.0343,0.0351,0.0434,0.0481,0.0514,0.0549,0.0602,0.0623,0.0685,0.0723,0.08,0.089,0.0979,0.1013,0.1005,0.1091,0.1092,0.1093,0.1062,0.1058,0.1056,0.1053,0.1073,0.1072,0.1071,0,0,0.0271,0.031,0.0317,0.0369,0.0442,0.0496,0.0497,0.0585,0.0614,0.069,0.0737,0.0824,0.0932,0.1007,0.1057,0.1137,0.1113,0.1159,0.113,0.1129,0.1125,0.1122,0.115,0.1149,0.116,0.116,0.116,0,0.0223,0.0256,0.0335,0.0359,0.0387,0.047,0.0475,0.0542,0.0638,0.0664,0.069,0.0859,0.0948,0.1041,0.1085,0.114,0.1129,0.1093,0.1126,0.1122,0.1119,0.1149,0.1148,0.1159,0.1159,0.1159,0.1159,0,0.0219,0.0229,0.0249,0.0291,0.0335,0.0373,0.0461,0.0498,0.0545,0.0612,0.0712,0.0856,0.094,0.1011,0.1079,0.1121,0.1119,0.1123,0.1089,0.1113,0.1146,0.1146,0.1157,0.1158,0.1158,0.1158,0,0,0.0129,0.0218,0.0215,0.0209,0.0301,0.0334,0.0376,0.0446,0.0427,0.058,0.0589,0.0804,0.0864,0.0928,0.103,0.1064,0.1087,0.1077,0.1078,0.1064,0.1079,0.1011,0.1005,0.1063,0.1062,0.1061,0.1121,0,0.008,0.0099,0.0163,0.0153,0.016,0.0239,0.0254,0.0325,0.0395,0.0434,0.062,0.069,0.0838,0.0874,0.094,0.1047,0.1077,0.107,0.1092,0.1094,0.0995,0.0999,0.0976,0.1018,0.1121,0.1121,0.1121,0,0.0032,0.0056,0.0046,0.0058,0.0062,0.0074,0.0082,0.012,0.0214,0.0256,0.0372,0.049,0.0653,0.0729,0.0912,0.0886,0.0968,0.1048,0.1051,0.0985,0.1023,0.101,0.1013,0.112,0.112,0.112,0.112,0,-0.0073,-0.0043,-0.0056,-0.0041,-0.0003,-0.0007,0.0022,0.0072,0.0091,0.0157,0.0165,0.0338,0.0458,0.0568,0.0817,0.0828,0.0963,0.0999,0.1018,0.1017,0.1,0.0996,0.1051,0.1051,0.1051,0.105,0.105,0,-0.0145,-0.0168,-0.0103,-0.0111,-0.0154,-0.0093,-0.0131,-0.011,-0.0067,-0.0056,0.009,0.014,0.0411,0.0559,0.0726,0.0886,0.0902,0.0993,0.1008,0.0995,0.099,0.1075,0.1077,0.1053,0.1052,0.1052,0.1051,0,-0.0256,-0.0213,-0.0236,-0.0205,-0.0198,-0.0218,-0.0185,-0.0219,-0.0184,-0.0171,-0.0143,0.003,0.02,0.0443,0.0656,0.0786,0.0921,0.0959,0.0945,0.0954,0.0999,0.0999,0.0964,0.0961,0.0959,0.0958,0.0956,0,-0.0308,-0.0322,-0.0305,-0.0314,-0.029,-0.0292,-0.0311,-0.0275,-0.0301,-0.0226,-0.0231,-0.0058,0.0088,0.038,0.0587,0.08,0.0864,0.0872,0.0884,0.0961,0.0981,0.0984,0.0987,0.0892,0.089,0.0889,0.0887,0,-0.04,-0.0388,-0.0389,-0.04,-0.0409,-0.0433,-0.0437,-0.0473,-0.0437,-0.0407,-0.0317,-0.018,0.0085,0.0337,0.0572,0.0693,0.083,0.0842,0.0919,0.0889,0.0889,0.091,0.0916,0.0874,0.0876,0.0877,0.0877,0.0878,-0.0475,-0.0472,-0.0457,-0.048,-0.0494,-0.0541,-0.0572,-0.0575,-0.0574,-0.0494,-0.0367,-0.0157,0.0069,0.0401,0.056,0.0693,0.0723,0.0793,0.08,0.0808,0.076,0.0752,0.0707,0.0707,0.0708,0.0708,0.0708,0,-0.056,-0.0527,-0.0531,-0.0544,-0.058,-0.0574,-0.0641,-0.0652,-0.0638,-0.0475,-0.0323,-0.0105,0.0143,0.0353,0.0556,0.0678,0.0711,0.0684,0.0738,0.075,0.076,0.0712,0.0646,0.0646,0.0646,0.0646,0,0,-0.0598,-0.0592,-0.0562,-0.0609,-0.0623,-0.0676,-0.0717,-0.0699,-0.0602,-0.0422,-0.0249,-0.0033,0.0205,0.0318,0.0478,0.0591,0.0644,0.0584,0.0625,0.0687,0.0696,0.0813,0.0748,0,0,0,0,0]}],[{"header":{"parameterUnit":"m.s-1","parameterCategory":2,"la1":30.2991,"la2":30.254,"lo1":-89.0895,"lo2":-89.0444,"dy":0.0017,"dx":0.0017,"nx":28,"ny":28,"refTime":"2025-08-03T09:00:00:Z","depth":"4","parameterNumber":2,"parameterNumberName":"U-component_of_CURRENTS"},"data":[0,0,0,0,0,0,0,0,0,0,0,0,0,0,0,0,0,0,0,0,0,0,0,0,0,0,0,0,0,0,0,0,0,0,0,0,0,0,0,0,0,0,0,0,0,0,0,0,0,0,0,0,0,0,0,0,0,0,-0.0824,-0.0825,0,-0.0899,-0.09,-0.0901,-0.0957,-0.0958,-0.0958,-0.0958,-0.1033,-0.1035,-0.1037,0,0,0,0,0,0,0,0,0,0,0,0,0,-0.0762,-0.0763,-0.0824,-0.0825,-0.0825,-0.0898,-0.09,-0.0901,-0.0957,-0.0958,-0.0958,-0.0958,-0.1032,-0.1035,-0.1037,0,0,0,0,0,0,0,0,0,0,0,0,0,-0.0812,-0.0763,-0.0824,-0.0859,-0.0863,-0.0898,-0.09,-0.0902,-0.0957,-0.0958,-0.0958,-0.0958,-0.1032,-0.1034,-0.1037,-0.1049,0,0,-0.1046,-0.1047,0,0,0,0,0,0,0,0,-0.0809,-0.0814,-0.0854,-0.0857,-0.0861,-0.0916,-0.0905,-0.095,-0.0957,-0.0926,-0.0958,-0.0958,-0.0991,-0.0997,-0.1016,-0.1053,-0.1056,-0.1046,-0.1048,-0.1049,-0.1049,0,0,0,0,0,0,0,-0.0805,-0.0812,-0.0858,-0.0854,-0.0859,-0.0882,-0.0889,-0.0914,-0.0959,-0.0929,-0.0932,-0.0934,-0.0994,-0.1013,-0.1018,-0.1057,-0.1046,-0.1048,-0.105,-0.1051,-0.1209,-0.1211,0,0,0,0,0,0,-0.0786,-0.0808,-0.0855,-0.086,-0.0831,-0.0882,-0.0891,-0.0901,-0.0959,-0.0967,-0.0933,-0.0936,-0.1009,-0.1015,-0.1021,-0.1106,-0.1049,-0.1051,-0.1053,-0.1206,-0.1209,-0.1212,0,0,0,0,0,0,-0.0785,-0.079,-0.0852,-0.0832,-0.0841,-0.0882,-0.0894,-0.0902,-0.0937,-0.0962,-0.0971,-0.096,-0.1009,-0.1017,-0.1073,-0.1107,-0.1053,-0.1055,-0.1203,-0.1207,-0.1211,-0.1233,0,0,0,0,0,0,-0.0783,-0.079,-0.0806,-0.0831,-0.0841,-0.0883,-0.0894,-0.0903,-0.0934,-0.0939,-0.0987,-0.0994,-0.101,-0.1069,-0.1075,-0.1109,-0.1057,-0.12,-0.1205,-0.121,-0.1229,-0.1237,-0.1244,0,0,0,0,0,-0.0781,-0.0789,-0.0807,-0.0813,-0.0858,-0.0883,-0.0892,-0.0924,-0.0935,-0.0955,-0.0999,-0.0993,-0.1104,-0.1073,-0.108,-0.1116,-0.1198,-0.1204,-0.1209,-0.1225,-0.1235,-0.1243,0,0,0,0,0,0,-0.0774,-0.0796,-0.0816,-0.0833,-0.0863,-0.0891,-0.0912,-0.0931,-0.0981,-0.0994,-0.1017,-0.1028,-0.1097,-0.1106,-0.107,-0.118,-0.1153,-0.1161,-0.1163,-0.1173,-0.118,-0.116,-0.106,0,0,0,0,0,-0.0779,-0.0784,-0.082,-0.0831,-0.0852,-0.0887,-0.0906,-0.093,-0.0966,-0.0989,-0.1029,-0.1077,-0.1124,-0.1146,-0.1193,-0.1238,-0.1227,-0.1272,-0.1279,-0.1285,-0.1278,-0.13,-0.1307,-0.1231,-0.1231,-0.1231,0,0,-0.077,-0.0787,-0.0788,-0.0829,-0.0858,-0.0896,-0.0901,-0.0934,-0.0971,-0.0988,-0.1064,-0.1107,-0.1147,-0.1213,-0.1243,-0.1222,-0.1303,-0.1292,-0.1297,-0.1286,-0.1306,-0.1313,-0.1319,-0.1235,-0.1234,-0.1233,0,0,-0.0764,-0.0785,-0.0803,-0.0834,-0.0881,-0.0904,-0.0915,-0.097,-0.1005,-0.1077,-0.1106,-0.1159,-0.1242,-0.1267,-0.129,-0.1363,-0.1348,-0.1395,-0.1405,-0.1426,-0.1431,-0.1436,-0.1423,-0.1426,-0.1389,-0.1389,-0.1389,0,-0.076,-0.0787,-0.0812,-0.0852,-0.0874,-0.0909,-0.0947,-0.0988,-0.1055,-0.1084,-0.1111,-0.1241,-0.1264,-0.1325,-0.1356,-0.1375,-0.1379,-0.136,-0.1431,-0.1436,-0.144,-0.1426,-0.1429,-0.1391,-0.1391,-0.1391,-0.1391,0,-0.0782,-0.081,-0.0822,-0.0881,-0.0918,-0.0941,-0.1002,-0.1053,-0.1103,-0.1142,-0.1237,-0.1292,-0.136,-0.1385,-0.1392,-0.1444,-0.1434,-0.1441,-0.1396,-0.1448,-0.1431,-0.1434,-0.1394,-0.1393,-0.1392,-0.1392,0,0,-0.0743,-0.0819,-0.0826,-0.0856,-0.0931,-0.0954,-0.1027,-0.1087,-0.1136,-0.122,-0.1286,-0.1368,-0.14,-0.1428,-0.1454,-0.1466,-0.149,-0.1466,-0.1467,-0.143,-0.1523,-0.1413,-0.1405,-0.1515,-0.1516,-0.1517,-0.1494,0,-0.0751,-0.0805,-0.0853,-0.0904,-0.0935,-0.0997,-0.1058,-0.1123,-0.1196,-0.1274,-0.1327,-0.141,-0.1416,-0.1465,-0.148,-0.1495,-0.1501,-0.1494,-0.1498,-0.1497,-0.1374,-0.1407,-0.152,-0.1496,-0.1496,-0.1497,-0.1497,0,-0.0758,-0.0791,-0.0838,-0.0909,-0.0934,-0.0982,-0.1076,-0.1136,-0.1239,-0.131,-0.1393,-0.1448,-0.1492,-0.1502,-0.1529,-0.153,-0.1528,-0.1529,-0.1528,-0.1417,-0.1393,-0.1439,-0.1501,-0.1501,-0.1501,-0.15,-0.15,0,-0.0693,-0.0775,-0.0798,-0.0823,-0.0921,-0.0968,-0.1028,-0.1141,-0.1201,-0.1331,-0.1397,-0.1472,-0.1513,-0.1539,-0.1539,-0.1547,-0.1552,-0.1562,-0.1458,-0.1449,-0.1541,-0.1537,-0.158,-0.158,-0.158,-0.158,-0.158,0,-0.0652,-0.0677,-0.0772,-0.0781,-0.0822,-0.093,-0.1005,-0.1083,-0.1221,-0.1285,-0.1402,-0.1463,-0.1528,-0.1544,-0.1548,-0.1493,-0.1558,-0.1451,-0.1438,-0.1552,-0.155,-0.1542,-0.1537,-0.1579,-0.1579,-0.158,-0.158,0,-0.0573,-0.0621,-0.0659,-0.0763,-0.0783,-0.0822,-0.0961,-0.103,-0.1173,-0.1268,-0.1312,-0.144,-0.1452,-0.1487,-0.1506,-0.1475,-0.1456,-0.1424,-0.1518,-0.1513,-0.1336,-0.1334,-0.1303,-0.1299,-0.1296,-0.1293,-0.1291,0,-0.0542,-0.0547,-0.0618,-0.0624,-0.0669,-0.0747,-0.08,-0.0968,-0.1057,-0.1237,-0.1269,-0.1335,-0.1396,-0.1324,-0.1376,-0.1357,-0.1351,-0.134,-0.1358,-0.1318,-0.1309,-0.1312,-0.1315,-0.1285,-0.1284,-0.1284,-0.1283,0,-0.0488,-0.051,-0.053,-0.054,-0.058,-0.0641,-0.0746,-0.0799,-0.0998,-0.1118,-0.1199,-0.1235,-0.1234,-0.1243,-0.1228,-0.1226,-0.1352,-0.1305,-0.1313,-0.1329,-0.1296,-0.1291,-0.1298,-0.1271,-0.1273,-0.1274,-0.1274,0,-0.0451,-0.0443,-0.0459,-0.0456,-0.0494,-0.0545,-0.0614,-0.073,-0.0827,-0.1046,-0.1046,-0.1132,-0.1204,-0.1173,-0.1168,-0.1143,-0.1137,-0.1131,-0.1147,-0.1161,-0.1127,-0.1065,-0.095,0,0,0,0,0,-0.0422,-0.0385,-0.0381,-0.0387,-0.0429,-0.046,-0.0583,-0.0682,-0.0852,-0.0871,-0.0975,-0.0982,-0.1002,-0.1043,-0.0985,-0.1092,-0.1129,-0.1024,-0.1127,-0.1206,-0.122,-0.1195,0,0,0,0,0,0,-0.0391,-0.0375,-0.0353,-0.0332,-0.0331,-0.0397,-0.0477,-0.0595,-0.0636,-0.0791,-0.0789,-0.0908,-0.0913,-0.0988,-0.0951,-0.0963,-0.1009,-0.1074,-0.1072,-0.1198,-0.1211,-0.1221,-0.1201,0,0,0,0,0]},{"header":{"parameterUnit":"m.s-1","parameterCategory":2,"la1":30.2991,"la2":30.254,"lo1":-89.0895,"lo2":-89.0444,"dy":0.0017,"dx":0.0017,"nx":28,"ny":28,"refTime":"2025-08-03T09:00:00:Z","depth":"4","parameterNumber":3,"parameterNumberName":"V-component_of_CURRENTS"},"data":[0,0,0,0,0,0,0,0,0,0,0,0,0,0,0,0,0,0,0,0,0,0,0,0,0,0,0,0,0,0,0,0,0,0,0,0,0,0,0,0,0,0,0,0,0,0,0,0,0,0,0,0,0,0,0,0,0,0,-0.0523,-0.0523,0,-0.0496,-0.0495,-0.0494,-0.0456,-0.0456,-0.0456,-0.0456,-0.046,-0.046,-0.0461,0,0,0,0,0,0,0,0,0,0,0,0,0,-0.0491,-0.0491,-0.0523,-0.0523,-0.0524,-0.0496,-0.0495,-0.0494,-0.0456,-0.0456,-0.0456,-0.0456,-0.046,-0.046,-0.0461,0,0,0,0,0,0,0,0,0,0,0,0,0,-0.0482,-0.0492,-0.0523,-0.0506,-0.0505,-0.0496,-0.0495,-0.0494,-0.0456,-0.0456,-0.0456,-0.0456,-0.046,-0.046,-0.0461,-0.0464,0,0,-0.0461,-0.0462,0,0,0,0,0,0,0,0,-0.0483,-0.0483,-0.0508,-0.0507,-0.0506,-0.0485,-0.0486,-0.0488,-0.0456,-0.0468,-0.0456,-0.0456,-0.0476,-0.0475,-0.046,-0.0464,-0.0464,-0.0461,-0.0462,-0.0462,-0.0462,0,0,0,0,0,0,0,-0.0484,-0.0484,-0.0506,-0.0509,-0.0507,-0.0483,-0.0481,-0.0485,-0.0468,-0.0467,-0.0466,-0.0473,-0.0474,-0.046,-0.046,-0.0464,-0.0461,-0.0462,-0.0462,-0.0462,-0.0474,-0.0474,0,0,0,0,0,0,-0.0503,-0.0485,-0.0507,-0.0506,-0.0501,-0.0484,-0.0482,-0.0487,-0.0467,-0.0466,-0.0473,-0.0471,-0.046,-0.046,-0.046,-0.0477,-0.0462,-0.0462,-0.0462,-0.0474,-0.0474,-0.0474,0,0,0,0,0,0,-0.0502,-0.0505,-0.0508,-0.05,-0.0499,-0.0486,-0.0491,-0.0486,-0.0478,-0.0473,-0.0471,-0.0471,-0.0459,-0.046,-0.0483,-0.0476,-0.0462,-0.0462,-0.0473,-0.0474,-0.0474,-0.0501,0,0,0,0,0,0,-0.0501,-0.0505,-0.051,-0.0501,-0.0501,-0.0516,-0.0491,-0.0486,-0.0485,-0.0483,-0.0471,-0.047,-0.0459,-0.0483,-0.0483,-0.0476,-0.0462,-0.0473,-0.0474,-0.0474,-0.05,-0.0503,-0.0504,0,0,0,0,0,-0.05,-0.0508,-0.0511,-0.0514,-0.051,-0.0517,-0.0514,-0.0499,-0.0486,-0.0489,-0.0487,-0.0471,-0.0484,-0.0484,-0.0484,-0.0477,-0.0473,-0.0473,-0.0474,-0.0499,-0.0502,-0.0504,0,0,0,0,0,0,-0.0498,-0.0506,-0.0508,-0.0518,-0.0527,-0.0514,-0.0515,-0.0506,-0.0502,-0.0502,-0.0488,-0.0488,-0.0502,-0.0491,-0.0491,-0.048,-0.0469,-0.047,-0.0488,-0.0491,-0.0493,-0.047,-0.0463,0,0,0,0,0,-0.0504,-0.0513,-0.0519,-0.0533,-0.0536,-0.0527,-0.0526,-0.0522,-0.0521,-0.0518,-0.051,-0.0501,-0.0501,-0.05,-0.05,-0.0504,-0.0449,-0.0494,-0.0496,-0.0498,-0.0479,-0.0404,-0.0397,-0.0475,-0.0475,-0.0475,0,0,-0.0512,-0.0517,-0.0524,-0.0534,-0.0534,-0.0541,-0.0524,-0.0534,-0.0535,-0.0522,-0.052,-0.0518,-0.0507,-0.0509,-0.0511,-0.0501,-0.0446,-0.0498,-0.05,-0.0479,-0.0404,-0.0396,-0.0389,-0.0475,-0.0475,-0.0475,0,0,-0.0528,-0.0534,-0.0543,-0.055,-0.0563,-0.0559,-0.0567,-0.0561,-0.0552,-0.0562,-0.0547,-0.0543,-0.0543,-0.0524,-0.0517,-0.053,-0.0467,-0.0529,-0.0514,-0.0443,-0.0435,-0.0428,-0.0342,-0.0327,-0.0522,-0.0522,-0.0522,0,-0.0531,-0.055,-0.055,-0.0558,-0.0572,-0.057,-0.0586,-0.0574,-0.0576,-0.0569,-0.0569,-0.0542,-0.0542,-0.0522,-0.0524,-0.0532,-0.0474,-0.0508,-0.0443,-0.0435,-0.0427,-0.0341,-0.0323,-0.0523,-0.0523,-0.0523,-0.0523,0,-0.0551,-0.0568,-0.0577,-0.0588,-0.06,-0.0619,-0.0617,-0.0615,-0.0608,-0.059,-0.0575,-0.0564,-0.0539,-0.0539,-0.0537,-0.0482,-0.0452,-0.0461,-0.0434,-0.042,-0.0331,-0.0312,-0.0525,-0.0525,-0.0524,-0.0524,0,0,-0.0546,-0.0583,-0.0587,-0.0608,-0.0622,-0.0638,-0.0639,-0.0638,-0.0621,-0.0607,-0.0573,-0.0567,-0.054,-0.0528,-0.0514,-0.0452,-0.0353,-0.0428,-0.0423,-0.0336,-0.017,-0.0208,-0.019,-0.0345,-0.0342,-0.034,-0.0129,0,-0.0562,-0.0597,-0.061,-0.0651,-0.0671,-0.0675,-0.0671,-0.0665,-0.0646,-0.0606,-0.0568,-0.0537,-0.054,-0.0521,-0.0461,-0.0385,-0.0305,-0.0408,-0.0201,-0.0194,-0.0224,-0.0171,-0.0331,-0.0115,-0.011,-0.0107,-0.0105,0,-0.0572,-0.0598,-0.0644,-0.0685,-0.0692,-0.0714,-0.0716,-0.0712,-0.0652,-0.0623,-0.0573,-0.0531,-0.0449,-0.0449,-0.028,-0.0342,-0.025,-0.0182,-0.0173,-0.0181,-0.0198,-0.0132,-0.007,-0.0073,-0.0076,-0.0078,-0.008,0,-0.0573,-0.0624,-0.0671,-0.0685,-0.0718,-0.0739,-0.0753,-0.072,-0.0702,-0.0624,-0.0576,-0.0486,-0.0419,-0.0303,-0.0182,-0.0212,0.0023,-0.0005,0.0058,0.0058,0.004,0.003,0.0142,0.0142,0.0142,0.0141,0.0141,0,-0.0578,-0.0615,-0.0682,-0.0702,-0.0743,-0.0763,-0.0779,-0.0756,-0.0707,-0.0659,-0.0585,-0.0504,-0.0374,-0.024,-0.0139,0.0021,0.0062,0.009,0.0115,0.0023,0.0008,0.0055,0.0042,0.0149,0.0147,0.0146,0.0144,0,-0.0567,-0.0609,-0.0664,-0.0724,-0.0745,-0.0777,-0.0809,-0.0798,-0.0744,-0.0669,-0.0636,-0.0486,-0.0312,-0.018,0.003,0.0078,0.0227,0.0274,0.0195,0.0206,0.0212,0.0195,0.0383,0.0383,0.0384,0.0384,0.0385,0,-0.0566,-0.0593,-0.068,-0.0714,-0.075,-0.0802,-0.0817,-0.081,-0.0788,-0.0651,-0.0598,-0.042,-0.0314,-0.002,0.009,0.0294,0.0295,0.0378,0.0272,0.0235,0.024,0.0222,0.0205,0.0385,0.0385,0.0385,0.0386,0,-0.0555,-0.0594,-0.064,-0.0705,-0.0755,-0.0799,-0.0826,-0.081,-0.0763,-0.0713,-0.0528,-0.0378,-0.0179,-0.0003,0.0151,0.0283,0.032,0.0383,0.0382,0.0283,0.024,0.024,0.0223,0.0387,0.0387,0.0387,0.0387,0,-0.0552,-0.0582,-0.0641,-0.0695,-0.0755,-0.078,-0.0801,-0.0764,-0.0733,-0.0596,-0.053,-0.0318,-0.0198,-0.0003,0.0141,0.0258,0.0267,0.0281,0.0285,0.0285,0.0155,0.0079,0.0228,0,0,0,0,0,-0.0541,-0.057,-0.0622,-0.0686,-0.0743,-0.0771,-0.0791,-0.0799,-0.0758,-0.0626,-0.058,-0.0393,-0.0154,-0.0038,0.0077,0.0111,0.0259,0.0244,0.0269,0.0396,0.0394,0.025,0,0,0,0,0,0,-0.0539,-0.0585,-0.0611,-0.0663,-0.0703,-0.0754,-0.0769,-0.0742,-0.0672,-0.0603,-0.0469,-0.0385,-0.0155,-0.0212,0.0079,0.0115,0.0139,0.036,0.0361,0.0397,0.0395,0.0394,0.0245,0,0,0,0,0]}]]